Weather History for KLLJ - August, 2013

Change the Weather History Date:

Friday, August 16, 2013

  Actual Average Record
Temperature  
Mean Temperature 74 °F 66 °F  
Max Temperature 97 °F 85 °F 97 °F (2013)
Min Temperature 50 °F 48 °F 33 °F (1927)
Degree Days  
Heating Degree Days 0 1  
Month to date heating degree days 5 11  
Since 1 June heating degree days 126 197  
Since 1 July heating degree days 5 32  
Cooling Degree Days 9 3  
Month to date cooling degree days 53 63  
Year to date cooling degree days 319 219  
Since 1 June cooling degree days 317 217  
Growing Degree Days 24 (Base 50)    
Moisture  
Dew Point 24 °F    
Average Humidity 22    
Maximum Humidity 38    
Minimum Humidity 5    
Precipitation  
Precipitation 0.00 in 0.02 in 0.48 in (2007)
Month to date precipitation 0.06 0.43  
Year to date precipitation 2.34 7.03  
Sea Level Pressure  
Sea Level Pressure 29.92 in    
Wind  
Wind Speed 5 mph (WNW)    
Max Wind Speed 21 mph    
Max Gust Speed 32 mph    
Visibility 6 miles    
Events      
T = Trace of Precipitation, MM = Missing Value Source: NWS Daily Summary

Daily Weather History Graph

Daily Weather History Graph

Search for Another Location

Airport or City:

Trip Planner

Search our weather history database for the weather conditions in past years. The results will help you decide how hot, cold, wet, or windy it might be!

Date:

Astronomy

Aug. 16, 2013 Rise Set
Actual Time 6:41 AM MDT 8:40 PM MDT
Civil Twilight 6:09 AM MDT 9:11 PM MDT
Nautical Twilight 5:30 AM MDT 9:49 PM MDT
Astronomical Twilight 4:48 AM MDT 10:32 PM MDT
Moon 5:07 PM MDT (8/16) 1:43 AM MDT (8/16)
Length of Visible Light 15h 01m
Length of Day
13h 58m
Waxing Gibbous, 75% of the Moon is Illuminated
Aug 16
Waxing Gibbous
Aug 20
Full
Aug 28
Last Quarter
Sep 5
New
Sep 12
First Quarter

Hourly Weather History & Observations

Time (MDT) Temp. Dew Point Humidity Pressure Visibility Wind Dir Wind Speed Gust Speed Precip Events Conditions
12:55 AM 61.0 °F 24.1 °F 24% 29.89 in 5.0 mi Calm Calm - N/A   Haze
1:55 AM 60.1 °F 24.1 °F 25% 29.89 in 4.0 mi Calm Calm - N/A   Haze
2:55 AM 57.0 °F 23.0 °F 27% 29.89 in 4.0 mi WNW 6.9 mph - N/A   Haze
3:48 AM 60.8 °F 24.8 °F 25% 30.10 in 4.0 mi Calm Calm - N/A   Haze
3:55 AM 62.1 °F 23.0 °F 22% 29.88 in 4.0 mi Calm Calm - N/A   Haze
4:18 AM 53.6 °F 24.8 °F 33% 30.10 in 5.0 mi Calm Calm - N/A   Haze
4:55 AM 53.1 °F 23.0 °F 31% 29.91 in 4.0 mi Calm Calm - N/A   Haze
5:55 AM 54.0 °F 25.0 °F 33% 29.92 in 5.0 mi Calm Calm - N/A   Haze
6:55 AM 51.1 °F 26.1 °F 38% 29.94 in 4.0 mi Calm Calm - N/A   Haze
7:55 AM 55.0 °F 25.0 °F 31% 29.96 in 3.0 mi WNW 3.5 mph - N/A   Haze
8:55 AM 59.0 °F 26.1 °F 28% 29.96 in 4.0 mi Calm Calm - N/A   Haze
9:55 AM 64.0 °F 37.0 °F 37% 29.96 in 3.0 mi NE 3.5 mph - N/A   Haze
10:07 AM 66.2 °F 26.6 °F 23% 30.15 in 3.0 mi Calm Calm - N/A   Haze
10:17 AM 68.0 °F 28.4 °F 23% 30.14 in 4.0 mi Calm Calm - N/A   Haze
10:55 AM 71.1 °F 36.0 °F 28% 29.96 in 4.0 mi North 3.5 mph - N/A   Haze
11:55 AM 75.9 °F 37.0 °F 24% 29.94 in 3.0 mi NNE 4.6 mph - N/A   Haze
12:55 PM 82.9 °F 36.0 °F 19% 29.90 in 4.0 mi NE 3.5 mph - N/A   Haze
1:55 PM 91.9 °F 27.0 °F 10% 29.85 in 10.0 mi Calm Calm - N/A   Clear
2:55 PM 93.9 °F 12.9 °F 5% 29.82 in 10.0 mi WNW 8.1 mph 23.0 mph N/A   Clear
3:55 PM 96.1 °F 14.0 °F 5% 29.79 in 10.0 mi WNW 15.0 mph 20.7 mph N/A   Clear
4:55 PM 95.0 °F 12.9 °F 5% 29.81 in 10.0 mi WSW 12.7 mph 19.6 mph N/A   Clear
5:55 PM 91.9 °F 15.1 °F 6% 29.82 in 7.0 mi SW 12.7 mph - N/A   Clear
6:55 PM 91.0 °F 16.0 °F 6% 29.83 in 5.0 mi WSW 9.2 mph - N/A   Haze
7:55 PM 88.0 °F 18.0 °F 8% 29.83 in 6.0 mi West 11.5 mph - N/A   Haze
8:55 PM 82.9 °F 18.0 °F 9% 29.86 in 10.0 mi WSW 4.6 mph - N/A   Clear
9:55 PM 75.9 °F 24.1 °F 15% 29.89 in 8.0 mi Calm Calm - N/A   Clear
10:55 PM 75.0 °F 19.0 °F 12% 29.89 in 6.0 mi SSW 8.1 mph - N/A   Haze
11:55 PM 69.1 °F 30.9 °F 24% 29.90 in 7.0 mi Calm Calm - N/A   Clear